Flag for Greece

Past Weather in Piraeus, Greece — Yesterday and Last 2 Weeks

Now
90 °F

Partly sunny.


Feels Like: 90 °F
Forecast: 86 / 76 °F
Wind: N/A

Location: Elefsis Airport

Current Time: Jul 7, 2020 at 3:02:19 pm

Latest Report: Jul 7, 2020 at 2:20 pm


Visibility: N/A

Pressure: 29.59 "Hg

Humidity: 38%

Dew Point: 61 °F

Location of PiraeusLocation

Past Weather in Piraeus — Graph

°F

Piraeus Temperature Yesterday

Maximum temperature yesterday: 90 °F (at 3:50 pm)
Minimum temperature yesterday: 75 °F (at 4:50 am)
Average temperature yesterday: 81 °F

High & Low Weather Summary for the Past Weeks

 TemperatureHumidityPressure
High100 °F (Jul 1, 1:50 pm)100% (Jun 22, 8:50 pm)30.04 "Hg (Jun 22, 8:50 pm)
Low64 °F (Jun 22, 7:20 pm)17% (Jun 28, 5:50 pm)29.50 "Hg (Jul 7, 2:50 am)
Average83 °F47%29.81 "Hg
* Reported Jun 22 1:20 pm — Jul 7 1:50 pm, Piraeus. Weather by CustomWeather, © 2020

Note: Actual official high and low records may vary slightly from our data, if they occured in-between our weather recording intervals... More about our weather records

Piraeus Weather History for the Previous 24 Hours

Scroll right to see more
 ConditionsComfort  
Time TempWeatherWind HumidityBarometerVisibility
1:50 pm
Tue, Jul 7
90 °FScattered clouds.N/A38%29.59 "HgN/A
1:20 pm90 °FScattered clouds.N/A41%29.59 "HgN/A
12:50 pm86 °FScattered clouds.N/A46%29.59 "HgN/A
12:20 pm90 °FScattered clouds.N/A41%29.59 "HgN/A
11:50 am86 °FPartly sunny.N/A46%29.59 "HgN/A
11:20 am88 °FScattered clouds.N/A43%29.56 "HgN/A
10:50 am84 °FScattered clouds.N/A51%29.56 "HgN/A
10:20 am84 °FScattered clouds.N/A51%29.56 "HgN/A
9:50 am84 °FScattered clouds.N/A51%29.56 "HgN/A
9:20 am82 °FScattered clouds.N/A55%29.56 "HgN/A
8:50 am81 °FScattered clouds.N/A58%29.53 "HgN/A
8:20 am81 °FScattered clouds.N/A58%29.53 "HgN/A
7:50 am81 °FScattered clouds.N/A58%29.53 "HgN/A
7:20 am81 °FScattered clouds.N/A58%29.53 "HgN/A
6:50 am81 °FPassing clouds.N/A58%29.53 "HgN/A
6:20 am81 °FPassing clouds.N/A54%29.53 "HgN/A
5:50 am81 °FPassing clouds.N/A54%29.53 "HgN/A
5:20 am79 °FPassing clouds.N/A58%29.50 "HgN/A
4:50 am81 °FPassing clouds.N/A54%29.50 "HgN/A
4:20 am79 °FPassing clouds.N/A58%29.50 "HgN/A
3:50 am79 °FPassing clouds.N/A58%29.50 "HgN/A
2:50 am79 °FPassing clouds.N/A58%29.50 "HgN/A
2:20 am81 °FPassing clouds.N/A54%29.53 "HgN/A
1:50 am81 °FPassing clouds.N/A54%29.53 "HgN/A
1:20 am81 °FPassing clouds.N/A54%29.53 "HgN/A
12:50 am81 °FPassing clouds.N/A54%29.53 "HgN/A
11:50 pm
Mon, Jul 6
81 °FPassing clouds.N/A54%29.56 "HgN/A
11:20 pm81 °FPassing clouds.N/A54%29.56 "HgN/A
10:50 pm81 °FPassing clouds.N/A54%29.56 "HgN/A
10:20 pm81 °FPassing clouds.N/A58%29.56 "HgN/A
9:50 pm82 °FPassing clouds.N/A55%29.56 "HgN/A
9:20 pm82 °FPassing clouds.N/A55%29.56 "HgN/A
8:50 pm82 °FScattered clouds.N/A55%29.56 "HgN/A
8:20 pm84 °FScattered clouds.N/A51%29.56 "HgN/A
7:50 pm84 °FScattered clouds.N/A48%29.56 "HgN/A
7:20 pm84 °FScattered clouds.N/A51%29.56 "HgN/A
6:50 pm86 °FScattered clouds.N/A46%29.56 "HgN/A
6:20 pm86 °FPartly sunny.N/A46%29.56 "HgN/A
5:50 pm86 °FPartly sunny.N/A49%29.56 "HgN/A
5:20 pm88 °FScattered clouds.N/A43%29.53 "HgN/A
4:50 pm90 °FScattered clouds.N/A41%29.56 "HgN/A
3:50 pm90 °FScattered clouds.N/A41%29.56 "HgN/A
3:20 pm88 °FScattered clouds.N/A46%29.56 "HgN/A
Weather by CustomWeather, © 2020

See weather overview